POLYITAN-1

Last updated on Sun Dec 21 2025 00:03:54 GMT+0000 (Coordinated Universal Time)

1 40042U 14033AJ 25354.48721054 .00012850 00000+0 50361-3 0 9994 2 40042 98.1070 359.7083 0010166 57.4698 302.7519 15.25884699626272
UTC large
Height (km)
Speed (km/s)
/
Latitude / Longitude
Inclination (degrees)
Orbital Period (minutes)
Azimuth
Elevation
Range (km)
Doppler Factor

Next 0 passes for location: London (51.5072 / 0.1276)

Sorry there are no passes over London.